Mount Airy, NC

6:03 AM EST on January 21, 2017 (GMT -0500)
Mount Airy

Weather History for KMWK - January, 2013

Change the Weather History Date:

Thursday, January 31, 2013

  Actual Average (KINT) Record (KINT)
Temperature  
Mean Temperature 40 °F -  
Max Temperature 49 °F 47 °F 73 °F (2002)
Min Temperature 30 °F 30 °F -3 °F (1966)
Degree Days  
Heating Degree Days 25    
Moisture  
Dew Point 25 °F    
Average Humidity 57    
Maximum Humidity 90    
Minimum Humidity 34    
Precipitation  
Precipitation 0.04 in - - ()
Sea Level Pressure  
Sea Level Pressure 29.79 in    
Wind  
Wind Speed 9 mph (West)    
Max Wind Speed 21 mph    
Max Gust Speed 31 mph    
Visibility 10 miles    
Events Rain    
Averages and records for this station are not official NWS values.
T = Trace of Precipitation, MM = Missing Value Source: NWS Daily Summary

Daily Weather History Graph

Daily Weather History Graph

Search for Another Location

Airport or City:

Trip Planner

Search our weather history database for the weather conditions in past years. The results will help you decide how hot, cold, wet, or windy it might be!

Date:

Astronomy

Jan. 31, 2013 Rise Set
Actual Time 7:24 AM EST 5:47 PM EST
Civil Twilight 6:57 AM EST 6:14 PM EST
Nautical Twilight 6:26 AM EST 6:45 PM EST
Astronomical Twilight 5:55 AM EST 7:15 PM EST
Moon 10:37 PM EST (1/31) 9:32 AM EST (1/31)
Length of Visible Light 11h 17m
Length of Day
10h 23m
Waning Gibbous, 80% of the Moon is Illuminated
Jan 31
Waning Gibbous
Feb 3
Last Quarter
Feb 10
New
Feb 17
First Quarter
Feb 25
Full

Hourly Weather History & Observations

Time (EST) Temp. Windchill Dew Point Humidity Pressure Visibility Wind Dir Wind Speed Gust Speed Precip Events Conditions
12:15 AM 50.9 °F - 48.2 °F 90% 29.46 in 7.0 mi SW 4.6 mph - 0.02 in Rain Rain
12:35 AM 50.5 °F - 47.7 °F 90% 29.44 in 10.0 mi West 6.9 mph - 0.04 in Rain Light Rain
12:55 AM 49.8 °F - 46.6 °F 89% 29.46 in 10.0 mi SW 6.9 mph - 0.04 in Rain Light Rain
1:15 AM 49.1 °F - 46.0 °F 89% 29.46 in 10.0 mi WSW 5.8 mph - N/A   Scattered Clouds
1:35 AM 48.4 °F - 45.5 °F 90% 29.46 in 10.0 mi West 5.8 mph - N/A   Scattered Clouds
1:55 AM 48.9 °F - 45.9 °F 89% 29.47 in 10.0 mi WNW 6.9 mph - N/A   Overcast
2:15 AM 48.6 °F - 45.0 °F 87% 29.49 in 10.0 mi West 6.9 mph 16.1 mph N/A   Overcast
2:35 AM 47.7 °F - 42.6 °F 83% 29.49 in 10.0 mi West 12.7 mph 23.0 mph N/A   Overcast
2:55 AM 46.8 °F - 41.9 °F 83% 29.51 in 10.0 mi West 10.4 mph 19.6 mph N/A   Overcast
3:15 AM 45.1 °F 39.1 °F 40.1 °F 82% 29.51 in 10.0 mi West 12.7 mph 20.7 mph N/A   Scattered Clouds
3:35 AM 44.6 °F 39.2 °F 37.9 °F 77% 29.54 in 10.0 mi West 10.4 mph 18.4 mph N/A   Clear
3:55 AM 44.6 °F 39.7 °F 36.1 °F 72% 29.56 in 10.0 mi West 9.2 mph 27.6 mph N/A   Clear
4:15 AM 43.3 °F 38.1 °F 34.3 °F 71% 29.57 in 10.0 mi West 9.2 mph 24.2 mph N/A   Clear
4:35 AM 42.8 °F 38.6 °F 33.1 °F 69% 29.60 in 10.0 mi WNW 6.9 mph 10.4 mph N/A   Scattered Clouds
4:55 AM 41.4 °F 36.2 °F 34.7 °F 77% 29.62 in 10.0 mi WNW 8.1 mph 18.4 mph N/A   Mostly Cloudy
5:15 AM 39.4 °F 33.2 °F 32.9 °F 78% 29.63 in 10.0 mi WNW 9.2 mph 16.1 mph N/A   Mostly Cloudy
5:35 AM 39.4 °F 34.5 °F 31.1 °F 72% 29.66 in 10.0 mi West 6.9 mph - N/A   Mostly Cloudy
5:55 AM 38.3 °F 32.5 °F 29.7 °F 71% 29.66 in 10.0 mi West 8.1 mph - N/A   Scattered Clouds
6:15 AM 37.6 °F 30.0 °F 28.0 °F 68% 29.69 in 10.0 mi West 11.5 mph 23.0 mph N/A   Clear
6:35 AM 37.4 °F 33.8 °F 29.8 °F 74% 29.72 in 10.0 mi WNW 4.6 mph - N/A   Mostly Cloudy
7:15 AM 36.9 °F 31.4 °F 27.0 °F 67% 29.73 in 10.0 mi WNW 6.9 mph - N/A   Overcast
7:35 AM 36.5 °F 33.9 °F 25.9 °F 65% 29.74 in 10.0 mi WNW 3.5 mph - N/A   Mostly Cloudy
7:55 AM 36.9 °F 34.3 °F 28.0 °F 70% 29.77 in 10.0 mi West 3.5 mph - N/A   Mostly Cloudy
8:15 AM 37.6 °F 30.5 °F 28.6 °F 70% 29.78 in 10.0 mi West 10.4 mph 17.3 mph N/A   Overcast
8:35 AM 38.3 °F 30.1 °F 27.0 °F 64% 29.79 in 10.0 mi West 13.8 mph 20.7 mph N/A   Mostly Cloudy
8:55 AM 38.7 °F 30.1 °F 23.7 °F 55% 29.81 in 10.0 mi West 15.0 mph 27.6 mph N/A   Mostly Cloudy
9:15 AM 39.4 °F 31.1 °F 23.2 °F 52% 29.83 in 10.0 mi West 15.0 mph 24.2 mph N/A   Scattered Clouds
9:35 AM 39.7 °F 32.7 °F 22.3 °F 50% 29.84 in 10.0 mi West 11.5 mph 24.2 mph N/A   Scattered Clouds
9:55 AM 39.2 °F 31.2 °F 20.3 °F 47% 29.85 in 10.0 mi WNW 13.8 mph 21.9 mph N/A   Scattered Clouds
10:15 AM 41.0 °F 33.9 °F 22.5 °F 48% 29.85 in 10.0 mi WNW 12.7 mph 23.0 mph N/A   Mostly Cloudy
10:35 AM 42.8 °F 36.2 °F 22.1 °F 44% 29.85 in 10.0 mi WNW 12.7 mph 18.4 mph N/A   Mostly Cloudy
10:55 AM 40.5 °F 33.2 °F 21.9 °F 48% 29.86 in 10.0 mi West 12.7 mph 16.1 mph N/A   Mostly Cloudy
11:15 AM 42.3 °F 34.8 °F 24.3 °F 49% 29.86 in 10.0 mi WNW 15.0 mph 24.2 mph N/A   Scattered Clouds
11:35 AM 42.1 °F 33.6 °F 18.5 °F 39% 29.85 in 10.0 mi West 18.4 mph 28.8 mph N/A   Scattered Clouds
11:55 AM 42.6 °F 34.9 °F 19.9 °F 40% 29.85 in 10.0 mi West 16.1 mph 31.1 mph N/A   Clear
12:15 PM 44.2 °F 37.3 °F 20.8 °F 39% 29.85 in 10.0 mi West 15.0 mph 24.2 mph N/A   Scattered Clouds
12:35 PM 43.7 °F 35.7 °F 19.9 °F 39% 29.86 in 10.0 mi West 18.4 mph 28.8 mph N/A   Scattered Clouds
12:55 PM 44.8 °F 38.3 °F 21.2 °F 39% 29.85 in 10.0 mi West 13.8 mph 23.0 mph N/A   Mostly Cloudy
1:15 PM 44.8 °F 37.4 °F 18.7 °F 35% 29.85 in 10.0 mi West 17.3 mph 26.5 mph N/A   Mostly Cloudy
1:35 PM 45.5 °F 38.1 °F 19.4 °F 35% 29.86 in 10.0 mi West 18.4 mph 26.5 mph N/A   Scattered Clouds
1:55 PM 44.2 °F 38.8 °F 19.9 °F 38% 29.87 in 10.0 mi West 10.4 mph 21.9 mph N/A   Scattered Clouds
2:15 PM 41.4 °F 34.0 °F 21.4 °F 45% 29.88 in 10.0 mi West 13.8 mph 25.3 mph N/A   Mostly Cloudy
2:35 PM 40.6 °F 32.7 °F 18.7 °F 41% 29.88 in 10.0 mi West 15.0 mph 28.8 mph N/A   Mostly Cloudy
2:55 PM 42.3 °F 36.8 °F 19.2 °F 40% 29.89 in 10.0 mi WNW 9.2 mph 21.9 mph N/A   Mostly Cloudy
3:15 PM 42.8 °F 37.0 °F 18.5 °F 38% 29.89 in 10.0 mi West 10.4 mph 24.2 mph N/A   Overcast
3:35 PM 44.6 °F 36.9 °F 17.4 °F 34% 29.90 in 10.0 mi West 18.4 mph 29.9 mph N/A   Overcast
3:55 PM 43.0 °F 34.8 °F 18.1 °F 37% 29.90 in 10.0 mi WSW 18.4 mph 26.5 mph N/A   Mostly Cloudy
4:15 PM 41.0 °F 31.6 °F 20.3 °F 44% 29.91 in 10.0 mi West 20.7 mph 25.3 mph N/A   Scattered Clouds
4:35 PM 40.3 °F 33.4 °F 17.6 °F 40% 29.92 in 10.0 mi West 11.5 mph 26.5 mph N/A   Mostly Cloudy
4:55 PM 40.3 °F 33.0 °F 18.7 °F 42% 29.93 in 10.0 mi West 12.7 mph 25.3 mph N/A   Scattered Clouds
5:15 PM 40.1 °F 33.6 °F 16.9 °F 39% 29.93 in 10.0 mi West 10.4 mph 19.6 mph N/A   Scattered Clouds
5:35 PM 38.5 °F 32.1 °F 15.3 °F 39% 29.92 in 10.0 mi WSW 9.2 mph - N/A   Clear
5:55 PM 36.5 °F 31.8 °F 14.2 °F 40% 29.92 in 10.0 mi WSW 5.8 mph - N/A   Clear
6:15 PM 35.6 °F 30.7 °F 15.8 °F 44% 29.93 in 10.0 mi WSW 5.8 mph - N/A   Clear
6:35 PM 35.6 °F 29.2 °F 16.7 °F 46% 29.93 in 10.0 mi WSW 8.1 mph - N/A   Clear
6:55 PM 35.6 °F 32.8 °F 16.2 °F 45% 29.93 in 10.0 mi SW 3.5 mph - N/A   Clear
7:15 PM 35.1 °F 32.2 °F 16.2 °F 46% 29.93 in 10.0 mi SW 3.5 mph - N/A   Clear
7:35 PM 34.9 °F 30.8 °F 16.7 °F 48% 29.94 in 10.0 mi SSW 4.6 mph - N/A   Clear
7:55 PM 34.0 °F 31.0 °F 17.8 °F 52% 29.94 in 10.0 mi SW 3.5 mph - N/A   Clear
8:15 PM 34.2 °F 31.2 °F 18.9 °F 54% 29.94 in 10.0 mi SSW 3.5 mph - N/A   Clear
8:35 PM 33.4 °F 30.4 °F 18.9 °F 55% 29.94 in 10.0 mi SSW 3.5 mph - N/A   Clear
8:55 PM 33.1 °F - 18.5 °F 55% 29.93 in 10.0 mi Calm Calm - N/A   Clear
9:15 PM 33.1 °F 27.7 °F 18.9 °F 56% 29.95 in 10.0 mi SW 5.8 mph - N/A   Clear
9:35 PM 34.3 °F 31.4 °F 19.9 °F 56% 29.94 in 10.0 mi SW 3.5 mph - N/A   Scattered Clouds
9:55 PM 34.0 °F 29.8 °F 20.1 °F 57% 29.94 in 10.0 mi SW 4.6 mph - N/A   Scattered Clouds
10:15 PM 33.8 °F 30.8 °F 19.6 °F 56% 29.95 in 10.0 mi WSW 3.5 mph - N/A   Clear
10:35 PM 33.3 °F - 19.4 °F 57% 29.95 in 10.0 mi Calm Calm - N/A   Scattered Clouds
10:55 PM 32.5 °F - 18.9 °F 57% 29.93 in 10.0 mi Calm Calm - N/A   Scattered Clouds
11:15 PM 31.3 °F 27.9 °F 16.0 °F 53% 29.93 in 10.0 mi ESE 3.5 mph - N/A   Clear
11:35 PM 30.2 °F - 16.3 °F 56% 29.93 in 10.0 mi Calm Calm - N/A   Clear
11:55 PM 30.2 °F - 15.8 °F 55% 29.91 in 10.0 mi Calm Calm - N/A   Clear